Location: Unspecified
(44.0704°N, 88.6889°W)
Time: 21:51:27
(UTC+02:00)

ISS - Pass Details

Date: 27 March 2019
Orbit: 408 x 410 km, 51.6° (Epoch: 24 April)

Event Time Altitude Azimuth Distance (km) Brightness Sun altitude
Rises 03:08:50 0° 281° (W) 2,335 1.4 -20.6°
Reaches altitude 10° 03:11:12 10° 296° (WNW) 1,474 0.2 -21.0°
Maximum altitude 03:13:54 23° 351° (N) 923 -1.7 -21.4°
Enters shadow 03:14:43 21° 14° (NNE) 985 -1.8 -21.6°
